Time,TemperatureF,DewpointF,PressureIn,WindDirection,WindDirectionDegrees,WindSpeedMPH,WindSpeedGustMPH,Humidity,HourlyPrecipIn,Conditions,Clouds,dailyrainin,SoftwareType,DateUTC
2013-04-25 00:02:00,60.0,42.0,30.24,NNE,25,6.0,-999.0,51,0.00,,,0.03,,2013-04-25 05:02:00,
2013-04-25 00:12:00,60.0,42.0,30.24,NNE,25,6.0,-999.0,51,0.00,,,0.03,,2013-04-25 05:12:00,
2013-04-25 00:21:00,59.0,41.0,30.24,NE,34,5.0,-999.0,52,0.00,,,0.00,,2013-04-25 05:21:00,
2013-04-25 00:32:00,59.0,42.0,30.24,North,11,7.0,-999.0,53,0.00,,,0.00,,2013-04-25 05:32:00,
2013-04-25 00:42:00,59.0,42.0,30.24,North,11,7.0,-999.0,53,0.00,,,0.00,,2013-04-25 05:42:00,
2013-04-25 00:52:00,59.0,42.0,30.22,NNE,28,10.0,-999.0,53,0.00,,,0.00,,2013-04-25 05:52:00,
2013-04-25 01:02:00,59.0,42.0,30.23,North,355,6.0,-999.0,54,0.00,,,0.00,,2013-04-25 06:02:00,
2013-04-25 01:11:00,59.0,42.0,30.23,North,355,6.0,-999.0,54,0.00,,,0.00,,2013-04-25 06:11:00,
2013-04-25 01:22:00,59.0,42.0,30.24,North,5,3.0,-999.0,54,0.00,,,0.00,,2013-04-25 06:22:00,
2013-04-25 01:31:00,59.0,43.0,30.24,North,11,4.0,-999.0,55,0.00,,,0.00,,2013-04-25 06:31:00,
2013-04-25 01:41:00,59.0,43.0,30.24,North,11,4.0,-999.0,55,0.00,,,0.00,,2013-04-25 06:41:00,
2013-04-25 01:52:00,59.0,42.0,30.24,NNW,342,6.0,-999.0,54,0.00,,,0.00,,2013-04-25 06:52:00,
2013-04-25 02:01:00,59.0,42.0,30.23,NNE,24,5.0,-999.0,54,0.00,,,0.00,,2013-04-25 07:01:00,
2013-04-25 02:11:00,58.0,42.0,30.23,NNE,27,6.0,-999.0,55,0.00,,,0.00,,2013-04-25 07:11:00,
2013-04-25 02:22:00,58.0,42.0,30.23,NNE,27,6.0,-999.0,55,0.00,,,0.00,,2013-04-25 07:22:00,
2013-04-25 02:31:00,58.0,42.0,30.23,North,360,6.0,-999.0,55,0.00,,,0.00,,2013-04-25 07:31:00,
2013-04-25 02:42:00,58.0,42.0,30.23,North,360,6.0,-999.0,55,0.00,,,0.00,,2013-04-25 07:42:00,
2013-04-25 02:52:00,58.0,42.0,30.23,NNE,27,4.0,-999.0,56,0.00,,,0.00,,2013-04-25 07:52:00,
2013-04-25 03:01:00,58.0,43.0,30.23,NNE,17,5.0,-999.0,57,0.00,,,0.00,,2013-04-25 08:01:00,
2013-04-25 03:11:00,58.0,43.0,30.23,NNE,17,5.0,-999.0,57,0.00,,,0.00,,2013-04-25 08:11:00,
2013-04-25 03:21:00,58.0,43.0,30.23,NNE,12,6.0,-999.0,57,0.00,,,0.00,,2013-04-25 08:21:00,
2013-04-25 03:31:00,58.0,43.0,30.23,NNE,18,5.0,-999.0,57,0.00,,,0.00,,2013-04-25 08:31:00,
2013-04-25 03:41:00,58.0,43.0,30.23,NNE,18,5.0,-999.0,57,0.00,,,0.00,,2013-04-25 08:41:00,
2013-04-25 03:52:00,58.0,43.0,30.22,NNE,21,4.0,-999.0,57,0.00,,,0.00,,2013-04-25 08:52:00,
2013-04-25 04:01:00,58.0,43.0,30.22,NNE,24,6.0,-999.0,57,0.00,,,0.00,,2013-04-25 09:01:00,
2013-04-25 04:11:00,58.0,43.0,30.22,NNE,24,6.0,-999.0,57,0.00,,,0.00,,2013-04-25 09:11:00,
2013-04-25 04:21:00,58.0,43.0,30.22,North,360,7.0,-999.0,57,0.00,,,0.00,,2013-04-25 09:21:00,
2013-04-25 04:33:00,58.0,43.0,30.22,North,360,7.0,-999.0,57,0.00,,,0.00,,2013-04-25 09:33:00,
2013-04-25 04:42:00,58.0,43.0,30.22,North,360,7.0,-999.0,57,0.00,,,0.00,,2013-04-25 09:42:00,
2013-04-25 04:52:00,58.0,43.0,30.23,North,5,8.0,-999.0,57,0.00,,,0.00,,2013-04-25 09:52:00,
2013-04-25 05:02:00,58.0,43.0,30.23,NNE,26,7.0,-999.0,57,0.00,,,0.00,,2013-04-25 10:02:00,
2013-04-25 05:12:00,58.0,43.0,30.23,NNE,26,7.0,-999.0,57,0.00,,,0.00,,2013-04-25 10:12:00,
2013-04-25 05:22:00,58.0,43.0,30.23,North,9,8.0,-999.0,57,0.00,,,0.00,,2013-04-25 10:22:00,
2013-04-25 05:32:00,58.0,43.0,30.24,NNE,15,9.0,-999.0,57,0.00,,,0.00,,2013-04-25 10:32:00,
2013-04-25 05:42:00,58.0,43.0,30.24,NNE,15,9.0,-999.0,57,0.00,,,0.00,,2013-04-25 10:42:00,
2013-04-25 05:53:00,58.0,43.0,30.24,North,360,9.0,-999.0,58,0.00,,,0.00,,2013-04-25 10:53:00,
2013-04-25 06:02:00,58.0,43.0,30.24,NNE,24,5.0,-999.0,58,0.00,,,0.00,,2013-04-25 11:02:00,
2013-04-25 06:12:00,58.0,43.0,30.24,NNE,24,5.0,-999.0,58,0.00,,,0.00,,2013-04-25 11:12:00,
2013-04-25 06:22:00,58.0,43.0,30.24,NE,34,7.0,-999.0,58,0.00,,,0.00,,2013-04-25 11:22:00,
2013-04-25 06:32:00,58.0,43.0,30.24,NNE,28,10.0,-999.0,58,0.00,,,0.00,,2013-04-25 11:32:00,
2013-04-25 06:42:00,58.0,43.0,30.24,NNE,28,10.0,-999.0,58,0.00,,,0.00,,2013-04-25 11:42:00,
2013-04-25 06:52:00,58.0,43.0,30.24,NNE,26,10.0,-999.0,58,0.00,,,0.00,,2013-04-25 11:52:00,
2013-04-25 07:01:00,58.0,43.0,30.24,North,5,7.0,-999.0,58,0.00,,,0.00,,2013-04-25 12:01:00,
2013-04-25 07:12:00,58.0,43.0,30.24,North,5,7.0,-999.0,58,0.00,,,0.00,,2013-04-25 12:12:00,
2013-04-25 07:21:00,58.0,44.0,30.25,NNE,28,9.0,-999.0,59,0.00,,,0.00,,2013-04-25 12:21:00,
2013-04-25 07:31:00,58.0,44.0,30.24,NNE,16,8.0,-999.0,59,0.00,,,0.00,,2013-04-25 12:31:00,
2013-04-25 07:42:00,58.0,44.0,30.24,NNE,16,8.0,-999.0,59,0.00,,,0.00,,2013-04-25 12:42:00,
2013-04-25 07:51:00,58.0,44.0,30.25,NNE,30,10.0,-999.0,59,0.00,,,0.00,,2013-04-25 12:51:00,
2013-04-25 08:02:00,57.0,43.0,30.25,NNE,15,8.0,-999.0,59,0.00,,,0.00,,2013-04-25 13:02:00,
2013-04-25 08:11:00,57.0,43.0,30.25,NNE,15,8.0,-999.0,59,0.00,,,0.00,,2013-04-25 13:11:00,
2013-04-25 08:21:00,58.0,44.0,30.27,NNE,32,5.0,-999.0,60,0.00,,,0.00,,2013-04-25 13:21:00,
2013-04-25 08:31:00,58.0,44.0,30.27,North,5,8.0,-999.0,60,0.00,,,0.00,,2013-04-25 13:31:00,
2013-04-25 08:42:00,58.0,44.0,30.27,North,5,8.0,-999.0,60,0.00,,,0.00,,2013-04-25 13:42:00,
2013-04-25 08:52:00,58.0,44.0,30.29,NNE,23,9.0,-999.0,59,0.00,,,0.00,,2013-04-25 13:52:00,
2013-04-25 09:01:00,59.0,45.0,30.29,NNE,22,13.0,-999.0,59,0.00,,,0.00,,2013-04-25 14:01:00,
2013-04-25 09:11:00,59.0,45.0,30.29,NNE,22,13.0,-999.0,59,0.00,,,0.00,,2013-04-25 14:11:00,
2013-04-25 09:21:00,58.0,44.0,30.29,North,5,11.0,-999.0,59,0.00,,,0.00,,2013-04-25 14:21:00,
2013-04-25 09:32:00,59.0,45.0,30.29,NE,45,9.0,-999.0,59,0.00,,,0.00,,2013-04-25 14:32:00,
2013-04-25 09:42:00,59.0,45.0,30.29,NE,45,9.0,-999.0,59,0.00,,,0.00,,2013-04-25 14:42:00,
2013-04-25 09:52:00,59.0,45.0,30.29,NNE,24,7.0,-999.0,60,0.00,,,0.00,,2013-04-25 14:52:00,
2013-04-25 10:02:00,59.0,45.0,30.30,NE,38,14.0,-999.0,59,0.00,,,0.00,,2013-04-25 15:02:00,
2013-04-25 10:11:00,59.0,45.0,30.30,NE,38,14.0,-999.0,59,0.00,,,0.00,,2013-04-25 15:11:00,
2013-04-25 10:21:00,59.0,44.0,30.30,NE,40,9.0,-999.0,58,0.00,,,0.00,,2013-04-25 15:21:00,
2013-04-25 10:33:00,60.0,46.0,30.30,NE,36,5.0,-999.0,59,0.00,,,0.00,,2013-04-25 15:33:00,
2013-04-25 10:42:00,60.0,46.0,30.30,NE,36,5.0,-999.0,59,0.00,,,0.00,,2013-04-25 15:42:00,
2013-04-25 10:53:00,61.0,45.0,30.29,NE,54,8.0,-999.0,56,0.00,,,0.00,,2013-04-25 15:53:00,
2013-04-25 11:02:00,62.0,46.0,30.30,ENE,61,11.0,-999.0,55,0.00,,,0.00,,2013-04-25 16:02:00,
2013-04-25 11:13:00,62.0,46.0,30.30,ENE,61,11.0,-999.0,55,0.00,,,0.00,,2013-04-25 16:13:00,
2013-04-25 11:24:00,61.0,45.0,30.31,NE,36,7.0,-999.0,55,0.00,,,0.00,,2013-04-25 16:24:00,
2013-04-25 11:32:00,61.0,45.0,30.31,NE,40,6.0,-999.0,55,0.00,,,0.00,,2013-04-25 16:32:00,
2013-04-25 11:42:00,61.0,45.0,30.31,NE,40,6.0,-999.0,55,0.00,,,0.00,,2013-04-25 16:42:00,
2013-04-25 11:52:00,61.0,44.0,30.30,ENE,63,12.0,-999.0,54,0.00,,,0.00,,2013-04-25 16:52:00,
2013-04-25 12:02:00,62.0,45.0,30.30,NNE,17,9.0,-999.0,53,0.00,,,0.00,,2013-04-25 17:02:00,
2013-04-25 12:11:00,62.0,45.0,30.30,NNE,17,9.0,-999.0,53,0.00,,,0.00,,2013-04-25 17:11:00,
2013-04-25 12:22:00,63.0,45.0,30.29,NNE,24,9.0,-999.0,52,0.00,,,0.00,,2013-04-25 17:22:00,
2013-04-25 12:32:00,63.0,45.0,30.29,NE,43,3.0,-999.0,51,0.00,,,0.00,,2013-04-25 17:32:00,
2013-04-25 12:42:00,63.0,45.0,30.29,NE,43,3.0,-999.0,51,0.00,,,0.00,,2013-04-25 17:42:00,
2013-04-25 12:53:00,64.0,45.0,30.27,NE,38,8.0,-999.0,50,0.00,,,0.00,,2013-04-25 17:53:00,
2013-04-25 13:01:00,65.0,45.0,30.27,NE,51,7.0,-999.0,48,0.00,,,0.00,,2013-04-25 18:01:00,
2013-04-25 13:11:00,65.0,45.0,30.27,NE,51,7.0,-999.0,48,0.00,,,0.00,,2013-04-25 18:11:00,
2013-04-25 13:21:00,65.0,44.0,30.26,NE,48,5.0,-999.0,47,0.00,,,0.00,,2013-04-25 18:21:00,
2013-04-25 13:32:00,65.0,45.0,30.26,NE,51,3.0,-999.0,48,0.00,,,0.00,,2013-04-25 18:32:00,
2013-04-25 13:42:00,65.0,45.0,30.26,NE,51,3.0,-999.0,48,0.00,,,0.00,,2013-04-25 18:42:00,
2013-04-25 13:53:00,66.0,46.0,30.25,NE,34,9.0,-999.0,48,0.00,,,0.00,,2013-04-25 18:53:00,
2013-04-25 14:01:00,67.0,46.0,30.24,NE,43,4.0,-999.0,46,0.00,,,0.00,,2013-04-25 19:01:00,
2013-04-25 14:12:00,67.0,46.0,30.24,NE,43,4.0,-999.0,46,0.00,,,0.00,,2013-04-25 19:12:00,
2013-04-25 14:21:00,67.0,45.0,30.24,NNE,30,10.0,-999.0,45,0.00,,,0.00,,2013-04-25 19:21:00,
2013-04-25 14:31:00,69.0,46.0,30.23,ENE,78,5.0,-999.0,43,0.00,,,0.00,,2013-04-25 19:31:00,
2013-04-25 14:41:00,69.0,46.0,30.23,ENE,78,5.0,-999.0,43,0.00,,,0.00,,2013-04-25 19:41:00,
2013-04-25 14:52:00,68.0,46.0,30.22,ENE,74,9.0,-999.0,45,0.00,,,0.00,,2013-04-25 19:52:00,
2013-04-25 15:01:00,68.0,44.0,30.22,ENE,57,13.0,-999.0,42,0.00,,,0.00,,2013-04-25 20:01:00,
2013-04-25 15:11:00,68.0,44.0,30.22,ENE,57,13.0,-999.0,42,0.00,,,0.00,,2013-04-25 20:11:00,
2013-04-25 15:22:00,68.0,45.0,30.21,ENE,76,5.0,-999.0,43,0.00,,,0.00,,2013-04-25 20:22:00,
2013-04-25 15:32:00,67.0,44.0,30.22,ENE,76,10.0,-999.0,43,0.00,,,0.00,,2013-04-25 20:32:00,
2013-04-25 15:42:00,67.0,44.0,30.22,ENE,76,10.0,-999.0,43,0.00,,,0.00,,2013-04-25 20:42:00,
2013-04-25 15:52:00,67.0,46.0,30.21,East,90,9.0,-999.0,46,0.00,,,0.00,,2013-04-25 20:52:00,
2013-04-25 16:01:00,67.0,46.0,30.21,NE,52,5.0,-999.0,46,0.00,,,0.00,,2013-04-25 21:01:00,
2013-04-25 16:11:00,67.0,46.0,30.21,NE,52,5.0,-999.0,46,0.00,,,0.00,,2013-04-25 21:11:00,
2013-04-25 16:21:00,66.0,46.0,30.21,ENE,71,5.0,-999.0,48,0.00,,,0.00,,2013-04-25 21:21:00,
2013-04-25 16:33:00,66.0,46.0,30.20,ESE,109,7.0,-999.0,49,0.00,,,0.00,,2013-04-25 21:33:00,
2013-04-25 16:42:00,66.0,46.0,30.20,ESE,109,7.0,-999.0,49,0.00,,,0.00,,2013-04-25 21:42:00,
2013-04-25 16:53:00,65.0,46.0,30.19,ENE,58,5.0,-999.0,50,0.00,,,0.00,,2013-04-25 21:53:00,
2013-04-25 17:02:00,66.0,47.0,30.19,ESE,102,7.0,-999.0,51,0.00,,,0.00,,2013-04-25 22:02:00,
2013-04-25 17:12:00,66.0,47.0,30.19,ESE,102,7.0,-999.0,51,0.00,,,0.00,,2013-04-25 22:12:00,
2013-04-25 17:22:00,65.0,46.0,30.19,ENE,65,4.0,-999.0,51,0.00,,,0.00,,2013-04-25 22:22:00,
2013-04-25 17:32:00,65.0,46.0,30.19,ENE,65,4.0,-999.0,51,0.00,,,0.00,,2013-04-25 22:32:00,
2013-04-25 17:42:00,65.0,46.0,30.19,ENE,65,4.0,-999.0,51,0.00,,,0.00,,2013-04-25 22:42:00,
2013-04-25 17:53:00,65.0,47.0,30.18,NE,52,2.0,-999.0,52,0.00,,,0.00,,2013-04-25 22:53:00,
2013-04-25 18:02:00,66.0,48.0,30.18,NE,48,2.0,-999.0,52,0.00,,,0.00,,2013-04-25 23:02:00,
2013-04-25 18:12:00,66.0,48.0,30.18,NE,48,2.0,-999.0,52,0.00,,,0.00,,2013-04-25 23:12:00,
2013-04-25 18:22:00,66.0,48.0,30.17,ENE,59,1.0,-999.0,52,0.00,,,0.00,,2013-04-25 23:22:00,
2013-04-25 18:32:00,66.0,48.0,30.17,NE,43,2.0,-999.0,52,0.00,,,0.00,,2013-04-25 23:32:00,
2013-04-25 18:42:00,66.0,48.0,30.17,NE,43,2.0,-999.0,52,0.00,,,0.00,,2013-04-25 23:42:00,
2013-04-25 18:52:00,66.0,48.0,30.17,NE,43,2.0,-999.0,52,0.00,,,0.00,,2013-04-25 23:52:00,
2013-04-25 19:01:00,66.0,48.0,30.17,NE,43,2.0,-999.0,52,0.00,,,0.00,,2013-04-26 00:01:00,
2013-04-25 19:11:00,66.0,48.0,30.17,NE,43,2.0,-999.0,52,0.00,,,0.00,,2013-04-26 00:11:00,
2013-04-25 19:21:00,66.0,48.0,30.17,NE,43,2.0,-999.0,52,0.00,,,0.00,,2013-04-26 00:21:00,
2013-04-25 19:31:00,66.0,48.0,30.17,NE,36,2.0,-999.0,53,0.00,,,0.00,,2013-04-26 00:31:00,
2013-04-25 19:41:00,66.0,48.0,30.17,NE,36,2.0,-999.0,53,0.00,,,0.00,,2013-04-26 00:41:00,
2013-04-25 19:52:00,66.0,48.0,30.17,NE,36,2.0,-999.0,53,0.00,,,0.00,,2013-04-26 00:52:00,
2013-04-25 20:01:00,66.0,48.0,30.16,East,84,2.0,-999.0,53,0.00,,,0.00,,2013-04-26 01:01:00,
2013-04-25 20:11:00,66.0,48.0,30.16,East,84,2.0,-999.0,53,0.00,,,0.00,,2013-04-26 01:11:00,
2013-04-25 20:21:00,66.0,48.0,30.16,East,84,2.0,-999.0,53,0.00,,,0.00,,2013-04-26 01:21:00,
2013-04-25 20:31:00,66.0,48.0,30.16,East,84,2.0,-999.0,53,0.00,,,0.00,,2013-04-26 01:31:00,
2013-04-25 20:41:00,66.0,48.0,30.16,East,84,2.0,-999.0,53,0.00,,,0.00,,2013-04-26 01:41:00,
2013-04-25 20:52:00,66.0,48.0,30.16,East,84,2.0,-999.0,53,0.00,,,0.00,,2013-04-26 01:52:00,
2013-04-25 21:01:00,66.0,48.0,30.16,East,84,2.0,-999.0,53,0.00,,,0.00,,2013-04-26 02:01:00,
2013-04-25 21:11:00,66.0,48.0,30.16,East,84,2.0,-999.0,53,0.00,,,0.00,,2013-04-26 02:11:00,
2013-04-25 21:21:00,66.0,48.0,30.16,East,84,2.0,-999.0,53,0.00,,,0.00,,2013-04-26 02:21:00,
2013-04-25 21:32:00,66.0,48.0,30.16,East,84,2.0,-999.0,53,0.00,,,0.00,,2013-04-26 02:32:00,
2013-04-25 21:42:00,66.0,48.0,30.16,East,84,2.0,-999.0,53,0.00,,,0.00,,2013-04-26 02:42:00,
2013-04-25 21:52:00,65.0,46.0,30.17,East,81,7.0,-999.0,51,0.00,,,0.00,,2013-04-26 02:52:00,
2013-04-25 22:01:00,65.0,46.0,30.17,East,81,7.0,-999.0,51,0.00,,,0.00,,2013-04-26 03:01:00,
2013-04-25 22:11:00,65.0,46.0,30.17,East,81,7.0,-999.0,51,0.00,,,0.00,,2013-04-26 03:11:00,
2013-04-25 22:21:00,65.0,46.0,30.17,East,81,7.0,-999.0,51,0.00,,,0.00,,2013-04-26 03:21:00,
2013-04-25 22:33:00,64.0,45.0,30.18,East,100,3.0,-999.0,51,0.00,,,0.00,,2013-04-26 03:33:00,
2013-04-25 22:43:00,64.0,45.0,30.18,East,100,3.0,-999.0,51,0.00,,,0.00,,2013-04-26 03:43:00,
2013-04-25 22:53:00,64.0,45.0,30.18,East,100,2.0,-999.0,51,0.00,,,0.00,,2013-04-26 03:53:00,
2013-04-25 23:02:00,64.0,47.0,30.19,East,100,0.0,-999.0,53,0.00,,,0.00,,2013-04-26 04:02:00,
2013-04-25 23:12:00,64.0,47.0,30.19,East,100,0.0,-999.0,53,0.00,,,0.00,,2013-04-26 04:12:00,
2013-04-25 23:22:00,64.0,47.0,30.19,East,100,1.0,-999.0,54,0.00,,,0.00,,2013-04-26 04:22:00,
2013-04-25 23:32:00,64.0,47.0,30.19,East,100,1.0,-999.0,54,0.00,,,0.00,,2013-04-26 04:32:00,
2013-04-25 23:43:00,64.0,47.0,30.19,East,100,1.0,-999.0,54,0.00,,,0.00,,2013-04-26 04:43:00,
2013-04-25 23:53:00,64.0,48.0,30.18,SE,141,3.0,-999.0,56,0.00,,,0.00,,2013-04-26 04:53:00,